Location: Benton
(37.9967°N, 88.9201°W)
Time: 14:36:48
(UTC+00:00)

Daily predictions for brighter satellites

Satellite Brightness Start Highest point End
(mag) Time Altitude Azimuth Time Altitude Azimuth Time Altitude Azimuth
Meteor PRIRODA 3.6 12:02:18 10° N 12:05:51 55° WNW 12:09:23 10° SSW
Cosmos 1092 Rocket 4.1 12:00:12 10° S 12:06:26 87° E 12:12:46 10° N
CZ-4B R/B 2.5 12:03:11 10° N 12:06:42 62° WNW 12:10:18 10° SSW
Cosmos 1805 Rocket 3.6 12:04:28 10° S 12:08:50 86° E 12:13:13 10° N
H-2A R/B 2.3 12:05:16 10° SSE 12:09:30 72° ENE 12:13:51 10° N
Cosmos 1538 Rocket 4.4 12:05:08 10° NNW 12:10:21 68° ENE 12:15:29 10° SSE
SMAP 3.4 12:06:33 10° NNE 12:11:13 73° ESE 12:15:50 10° S
SL-27 R/B 3.0 12:09:17 10° NNW 12:12:38 39° WSW 12:15:55 10° S
NOAA 11 4.5 12:08:45 10° N 12:13:57 46° WNW 12:19:10 10° SW
Cosmos 1340 Rocket 3.2 12:11:17 10° SSW 12:14:59 39° WNW 12:18:46 10° N
Cosmos 1515 3.7 12:11:49 10° N 12:15:37 89° W 12:19:25 10° S
CZ-2C R/B 3.2 12:13:49 10° N 12:18:36 51° WNW 12:23:36 10° SSW
SL-8 R/B 3.9 12:16:56 10° WNW 12:21:40 61° SW 12:26:22 10° SE
H-2A R/B 3.1 12:20:29 10° NNE 12:25:15 48° E 12:30:01 10° S
ATLAS 5 CENTAUR R/B 2.6 12:22:21 10° W 12:25:22 22° NW 12:28:39 10° N
Okean O Rocket 4.1 12:26:43 10° NE 12:30:28 27° E 12:34:11 10° SSE
Cosmos 1666 3.7 12:26:56 10° S 12:30:36 51° E 12:34:17 10° NNE
NOAA 12 4.1 22:57:31 10° SSE 23:02:49 78° ENE 23:08:09 10° N
Cosmos 1697 Rocket 2.7 22:58:29 10° NNW 23:04:08 78° ENE 23:09:44 10° SSE
Cosmos 1092 Rocket 4.1 22:58:01 10° N 23:04:21 67° E 23:10:37 10° SSE
BREEZE-M R/B 4.3 23:03:08 10° WNW 23:06:43 49° SW 23:15:13 10° SE
Cosmos 1898 Rocket 3.6 23:04:07 10° NNW 23:09:22 84° WSW 23:14:33 10° SSE
Cosmos 1980 Rocket 2.5 23:04:06 10° N 23:09:29 43° ENE 23:14:48 10° SE
SMAP 3.1 23:07:46 10° SSE 23:12:19 60° ENE 23:16:55 10° N
GPS 2-04 Rocket1 3.5 23:09:43 10° W 23:13:43 50° SSW 23:17:42 10° ESE
Cosmos 1602 3.7 23:09:57 10° N 23:13:50 79° E 23:17:42 10° S
CORIOLIS 4.2 23:09:45 10° SSE 23:15:01 57° ENE 23:20:20 10° N
FengYun 1-2 T 4.2 23:10:39 10° SSE 23:16:14 84° ENE 23:21:48 10° NNW
Cosmos 1743 Rocket 4.3 23:12:39 10° NNW 23:16:55 58° W 23:21:09 10° S
Cosmos 2369 3.7 23:11:19 10° NNW 23:17:01 64° ENE 23:22:40 10° SSE
ISS -2.7 23:14:29 10° NNW 23:17:29 28° NNE 23:20:28 10° E
CZ-4C R/B 3.4 23:13:02 10° NNW 23:20:03 44° NE 23:28:04 10° ESE
Meteor 2-21 4.4 23:14:27 10° N 23:20:31 67° E 23:26:30 10° SSE
Cosmos 2082 Rocket 2.4 23:16:45 10° SSW 23:22:27 77° WNW 23:28:08 10° NNE
Cosmos 1939 Rocket 2.9 23:19:28 10° SSE 23:23:34 89° W 23:27:40 10° NNW
SL-16 R/B 3.6 23:20:21 10° NNE 23:23:51 16° NE 23:27:09 11° E
Cosmos 2279 Rocket 4.1 23:18:54 10° SSE 23:24:55 56° E 23:30:58 10° NNE
Okean O Rocket 2.9 23:21:53 10° ESE 23:25:09 20° ENE 23:28:25 10° NNE
Cosmos 1328 Rocket 4.1 23:21:34 10° SSE 23:25:39 37° E 23:29:45 10° NNE
Cosmos 1627 Rocket 4.5 23:21:17 10° N 23:27:28 87° E 23:33:35 10° S
Cosmos 1666 Rocket 3.9 23:24:03 10° N 23:28:17 44° E 23:32:28 10° SSE
ARGOS 3.9 23:26:26 10° SE 23:31:00 29° ENE 23:35:34 10° N
Cosmos 44 Rocket 4.4 23:27:29 10° N 23:31:25 24° NE 23:34:46 12° E
Cosmos 1500 3.0 23:28:41 10° N 23:32:25 85° E 23:36:08 10° S
Cosmos 2208 Rocket 4.1 23:27:26 10° S 23:32:44 62° ESE 23:38:06 10° NNE
Cosmos 841 Rocket 4.3 23:29:17 10° SW 23:34:16 50° WNW 23:39:17 10° N
CZ-4B DEB 4.1 23:30:41 10° SSE 23:36:11 76° ENE 23:41:41 10° N
Cosmos 1782 3.7 23:32:23 10° SSW 23:36:16 50° W 23:40:09 10° N
CZ-2D R/B 3.3 23:32:52 10° SSE 23:36:36 55° ENE 23:40:21 10° N
Meteor 1-14 Rocket 4.4 23:31:09 10° N 23:36:58 60° E 23:42:50 10° SSE
CZ-2C R/B 4.5 23:33:05 10° SSW 23:37:41 39° W 23:42:08 10° NNW
MOS 1-B 4.4 23:32:12 10° SSE 23:37:48 56° ENE 23:43:27 10° N
Cosmos 2278 3.8 23:34:34 10° NNW 23:40:10 55° ENE 23:45:43 10° SE
H-2A R/B 2.0 23:35:56 10° SSE 23:41:00 59° ENE 23:45:58 10° N
ATLAS CENTAUR R/B 4.4 23:32:00 10° WSW 23:41:01 31° NW 23:45:19 10° NNE
SKYMED 2 3.7 23:41:02 10° NNE 23:45:17 51° E 23:49:29 10° S
Cosmos 1937 Rocket 4.4 23:40:29 10° NNW 23:45:40 54° WSW 23:50:48 10° S
USA 267 4.2 23:41:48 10° NNE 23:47:47 40° NNW 23:53:46 10° W
Sich 1 3.9 23:44:26 10° NNW 23:48:38 53° W 23:52:50 10° S
Cosmos 372 Rocket 4.1 23:44:24 10° NNW 23:49:40 81° WSW 23:54:54 10° SSE
Cosmos 2026 Rocket 4.5 23:45:25 10° NNW 23:51:26 62° W 23:57:22 10° S
Cosmos 1125 Rocket 4.3 23:47:54 10° N 23:52:25 28° ENE 23:56:50 10° ESE
deb Chang Zheng 4 3.7 23:51:17 10° SSE 23:55:25 48° ENE 23:59:34 10° N
APEX 3.1 23:52:25 10° SSW 23:56:31 59° ESE 23:58:03 30° NE
